Location: Wells
(51.2093°N, 2.6446°W)
Time: 02:32:29
(UTC+00:00)

BlueWalker 3 - Visible Passes

Search period start: 21 January 2026 00:00
Search period end: 31 January 2026 00:00
Orbit: 451 x 463 km, 53.2° (Epoch: 20 January)

Date Brightness Start Highest point End Pass type
(mag) Time Alt. Az. Time Alt. Az. Time Alt. Az.
21 Jan 3.5 18:57:52 10° SSW 18:59:45 22° S 18:59:45 22° S visible
22 Jan 3.2 18:22:47 10° SSW 18:25:35 22° SE 18:26:02 21° SE visible
22 Jan 4.7 19:59:08 10° WSW 19:59:47 15° WSW 19:59:47 15° WSW visible
23 Jan 3.6 17:47:46 10° S 17:50:16 18° SE 17:52:14 12° E visible
23 Jan 3.1 19:23:44 10° WSW 19:25:59 36° SW 19:25:59 36° SW visible
24 Jan 1.7 18:48:21 10° SW 18:51:53 60° SSE 18:52:07 58° SE visible
25 Jan 2.1 18:12:59 10° SW 18:16:27 50° SSE 18:18:11 26° E visible
25 Jan 4.1 19:50:22 10° W 19:51:55 24° W 19:51:55 24° W visible
26 Jan 2.4 17:37:38 10° SW 17:41:01 42° SSE 17:44:11 11° ENE visible
26 Jan 2.2 19:14:51 10° W 19:17:55 59° WNW 19:17:55 59° WNW visible
27 Jan 1.7 18:39:20 10° W 18:42:55 77° NNW 18:43:53 45° ENE visible
27 Jan 4.9 20:17:03 10° WNW 20:17:37 14° WNW 20:17:37 14° WNW visible
28 Jan 1.7 18:03:49 10° WSW 18:07:24 85° NNW 18:09:49 19° ENE visible
28 Jan 3.5 19:41:32 10° WNW 19:43:33 31° WNW 19:43:33 31° WNW visible
29 Jan 1.7 17:28:17 10° WSW 17:31:52 86° SSE 17:35:27 10° ENE visible
29 Jan 1.9 19:05:58 10° W 19:09:28 60° N 19:09:28 60° N visible
30 Jan 1.9 18:30:24 10° W 18:33:56 61° N 18:35:22 32° ENE visible
30 Jan 4.5 20:08:00 10° WNW 20:09:06 19° WNW 20:09:06 19° WNW visible
